CZ-6A DEB

Satellite information

Favourite Embed

Satellite Type and Status

DEBRISIN ORBIT

Key statistics

Satellite CZ-6A DEB at a glance.

Uptime

494

Days in orbit

Revolutions

≈ 14.2

Per day

Orbit

LEO

Low Earth Orbit

Inclination

89.0

Latest

Satellite identification and parameters

Extended collection of information and parameters for CZ-6A DEB.

Object identification

Identified? True

Debris? True

Object name: CZ-6A DEB

International designator: 2024-140CS

Object number (NORAD): 60689

Object ID (CCSDS): 60689

Country: PEOPLES REPUBLIC OF CHINA (PRC)

Current information (Y/N): Y

RCS size: MEDIUM

Orbital parameters

Period: 101.099 minutes

Inclination: 89.0005 deg

SMA: 7188.808 km

Apoapsis: 834.104 km

Periapsis: 787.241 km

RAAN: 295.4127 deg

Eccentricy: 0.00325943

Argument of periapsis: 87.8851 deg

Mean anomaly: 272.6073 deg

Mean motion: 14.24352377 rev/day

Mean motion (dot): 0.00002218 rev/day2

B* drag term: 0.00094868875 1/REarth

Two-line elements (TLE)

Creation date: Dec. 12, 2025, 10:14 a.m.

Reference frame: TEME

Reference center: EARTH

Epoch: Dec. 12, 2025, 7:01 a.m. UTC

TLE line 0: 0 CZ-6A DEB

TLE line 1: 1 60689U 24140CS 25346.29259364 .00002218 00000-0 94869-3 0 9992

TLE line 2: 2 60689 89.0005 295.4127 0032594 87.8851 272.6073 14.24352377 69711

Live tracking on map

Real-time ground track for satellite CZ-6A DEB.

In-orbit conjunctions

A list of the most updated potential collisions computed for object CZ-6A DEB.

Target Orbit TCA Probability of collision Miss distance Type
COSMOS 2251 DEB LEO 2025-10-05 14:18:42 0.0001117235 441.0 (m) DEBRIS
FENGYUN 1C DEB SSO 2025-08-19 19:41:18 0.0001352843 299.0 (m) DEBRIS
FENGYUN 1C DEB SSO 2024-12-26 08:07:56 0.0001068902 578.0 (m) DEBRIS
METEOR 2-17 DEB LEO 2024-12-18 21:27:41 0.0002766388 406.0 (m) DEBRIS
FENGYUN 1C DEB SSO 2024-12-13 04:15:51 0.0001347844 706.0 (m) DEBRIS

Associated space launch

18 Low Earth Orbit communication satellites with Ku, Q and V band payloads for the G60 constellation operated by Shanghai Spacecom Satellite Technology (SSST) with funding backed by the Shanghai local government. Initial constellation will consist of 1296 satellites by 2027 with long term plans to expand it to 12000 satellites.

CZ-6A DEB was lifted into orbit during the mission ‘Long March 6A | G60 Polar Group 01’, on board a Long March 6A space rocket.

The launch took place on Aug. 6, 2024, 6:42 a.m. from Launch Complex 9A.

For more information about the launch, click the button.

Launch to space Long March 6A | G60 Polar Group 01
Long March 6A | G60 Polar Group 01

Agency: N/A

Status: Launch Successful

Launch date: Aug. 6, 2024, 6:42 a.m. UTC

Rocket: Long March 6A

Launch pad: Launch Complex 9A

Location: Taiyuan Satellite Launch Center, People's Republic of China

...

Latest news about this satellite

News about space launch
Brightness of first Chinese broadband constellation satellites alarms astronomers

The first satellites of a Chinese broadband constellation are significantly brighter than those of Western systems, posing a new challenge for astronomers.

News about space launch
Chinese rocket stage breaks up into cloud of more than 700 pieces of space debris

HELSINKI — A Chinese Long March 6A rocket’s upper stage has fragmented into a cloud of over 700 pieces of space debris, adding to concerns about long-term orbital safety. China […]

News about space launch
China's Thousand Sails Megaconstellation Kicks Off with Dangerous Debris Field

China's Thousand Sails Megaconstellation Kicks Off with Dangerous Debris Field


Newsletter sign-up

Weekly statistics, charts and insights to help you stay on top of the space industry.